Regional Weather Roundup
Issued by NWS Kansas City/Pleasant Hill, MO

Home | Current Version | Previous Version | Graphics & Text | Print | Product List | Glossary Off
Versions: 1 2 3 4 5 6 7 8 9 10 11 12 13 14 15 16 17 18 19 20 21 22 23 24 25 26 27 28 29 30 31 32 33 34 35 36 37 38 39 40 41 42 43 44 45 46 47 48 49 50

000
ASUS43 KEAX 311510
RWREAX

WEATHER ROUNDUP FOR EASTERN KANSAS AND NORTHWEST MISSOURI
NATIONAL WEATHER SERVICE KANSAS CITY/PLEASANT HILL MO
1000 AM CDT TUE MAY 31 2016

KSZ040-057-103>105-MOZ028-029-037-043-311600-
...KANSAS CITY METROPOLITAN AREA...

CITY           SKY/WX    TMP DP  RH WIND       PRES   REMARKS
K.C. INTL      CLOUDY    68  63  84 S7        29.97R
K.C. DOWNTOWN  CLOUDY    71  63  75 S7        29.96R
LEES SUMMIT    CLOUDY    69  63  81 S9        29.96S
OLATHE - IXD   CLOUDY    69  63  81 SE8       29.97R
OLATHE - OJC   CLOUDY    66  63  90 S7        29.97R
LAWRENCE       CLOUDY    68  63  84 SW3       29.97R

$$

MOZ001>008-011>017-020>025-030>033-038>040-044>046-053-054-311600-
...NORTHERN AND CENTRAL MISSOURI...

CITY           SKY/WX    TMP DP  RH WIND       PRES   REMARKS
ST. JOSEPH     CLOUDY    71  63  75 S7        29.95R
MOSBY          CLOUDY    70  63  78 S6        29.96S
WARRENSBURG    CLOUDY    70  64  83 SW9       29.96R
WHITEMAN AFB   CLOUDY    71  71  98 SW13      29.95R
CLINTON        CLOUDY    68  66  94 S5        29.98R
SEDALIA        MOSUNNY   73  65  75 SE10      29.96F
WARSAW         NOT AVBL
CHILLICOTHE      N/A     71  64  78 SE6       29.95F
KIRKSVILLE     CLOUDY    69  63  81 S5        29.98S

$$

MOZ041-047>049-056>058-063>065-088>090-097-311600-
...EASTERN AND SOUTHERN MISSOURI...

CITY           SKY/WX    TMP DP  RH WIND       PRES   REMARKS
ST. LOUIS INTL CLOUDY    74  61  63 N6        29.99F
SPIRIT OF STL  LGT RAIN  71  67  87 CALM      29.98S
COLUMBIA       CLOUDY    71  62  73 SE9       29.99S
JEFFERSON CITY CLOUDY    71  62  73 E6        29.98S
ROLLA          MOSUNNY   71  62  73 SE8       29.99R
SPRINGFIELD    CLOUDY    72  63  73 S7        29.98S
BRANSON        CLOUDY    68  64  88 E10       30.01R
JOPLIN         CLOUDY    72  67  84 W6        29.98R
WEST PLAINS    CLOUDY    68  63  84 CALM      30.03S

$$

IAZ060-094-KSZ022-034>040-054-083-096-NEZ052-066-093-311600-
...KANSAS...SOUTHEAST NEBRASKA AND IOWA...

CITY           SKY/WX    TMP DP  RH WIND       PRES   REMARKS
TOPEKA         CLOUDY    70  62  76 W7        29.96R
MANHATTAN      CLOUDY    67  59  75 CALM      29.96R
EMPORIA        CLOUDY    65  63  93 S6        29.96R
CHANUTE        CLOUDY    70  65  84 SW12      29.96S
WICHITA        CLOUDY    66  61  84 CALM      29.95S
OMAHA          CLOUDY    69  61  75 NW13      29.93R
LINCOLN        CLOUDY    68  59  73 N14       29.96R
FALLS CITY     LGT RAIN  73  62  68 SW6       29.93R
LAMONI         SUNNY     71  61  70 S9        29.94F
DES MOINES     CLOUDY    72  60  66 S10       29.92S

$$




USA.gov is the U.S. government's official web portal to all federal, state and local government web resources and services.